{"data":{"norad_id":60050,"intl_designator":"2024-112N","name":"STARLINK-11137 [DTC]","alt_names":[],"object_type":"PAYLOAD","status":"ACTIVE","operator":null,"country":"US","launch_date":"2024-06-08","launch_site_code":"AFWTR","launch_vehicle":null,"mission":null,"orbit_class":"UNKNOWN","rcs_meters":null,"size_class":null,"mass_kg":null,"dimensions":null,"purposes":["comms"],"wikipedia_slug":null,"has_3d_model":false,"image_url":null,"decayed_at":null,"tle_current":{"epoch":"2026-09-21T14:11:50.811648Z","epoch_age_seconds":83904,"freshness":"FRESH","line1":"1 60050U 24112N   26264.59156032 -.00000714  00000+0 -10445-5 0  9994","line2":"2 60050  53.1575  20.2402 0000775 119.9624 240.1471 15.69703809131754","mean_motion":15.69703809,"eccentricity":7.75e-5,"inclination_deg":53.1575,"raan_deg":20.2402,"arg_perigee_deg":119.9624,"mean_anomaly_deg":240.1471,"bstar":-1.0445e-6,"rev_number":13175,"period_min":91.737052031324,"perigee_km":359.22228093655,"apogee_km":360.26665256389,"semimajor_km":6737.8814667502,"source":"CELESTRAK","updated_at":"2026-09-22T09:00:49.144263Z"}}}